Current Version              Previous Version:    01  02  03  04  05  06  07  08  09  10  11  12  13  14  15  16  17  18  19  20  21  22  23  24  25  26  27  28  29  30  
   31  32  33  34  35  36  37  38  39  40  41  42  43  44  45  46  47  48  49  50  51  52  53  54  55  56  57  58  59  60  

[Printable]
440
ASUS44 KEWX 200210
RWRTX
SOUTH TEXAS REGIONAL WEATHER ROUNDUP
NATIONAL WEATHER SERVICE AUSTIN/SAN ANTONIO TX
800 PM CST FRI DEC 19 2014

NOTE: "FAIR" INDICATED FEW OR NO CLOUDS BELOW 12,000 FEET WITH NO
SIGNIFICANT WEATHER AND/OR OBSTRUCTIONS TO VISIBILITY.

* - THESE STATIONS ARE NOT NWS OR FAA STATIONS...AND ARE NOT SUBJECT
    TO NWS AND FAA QUALITY CONTROL.

TXZ171-172-183>190-200300-
TEXAS HILL COUNTRY AND EDWARDS PLATEAU

CITY           SKY/WX    TMP DP  RH WIND       PRES   REMARKS
JUNCTION       CLEAR     46  43  89 NE3       30.15R
*LLANO         CLOUDY    52  46  82 NE3       30.21R
BURNET         CLOUDY    48  44  86 N8        30.19R WCI  44
*HORSESHOE BAY CLOUDY    51  45  81 NE5       30.17R
*KERRVILLE     CLOUDY    51  47  85 N6        30.16R
*FREDERICKSBRG CLOUDY    49  44  83 NE5       30.16R WCI  47
*ROCKSPRINGS   CLEAR     48  45  87 NE6       30.15R WCI  46
*BOERNE STAGE  CLOUDY    50  43  76 N8        30.15S WCI  47
*CASTROVILLE   CLEAR     53  46  77 NE6       30.15R
HONDO          CLEAR     53  47  79 NE9       30.14R
*UVALDE        CLEAR     39  37  91 E8        30.13R WCI  33
DEL RIO        CLEAR     57  44  62 CALM      30.09R
LAUGHLIN AFB   CLEAR     56  49  76 SW3       30.10R
CARRIZO SPRGS  CLEAR     50  48  93 CALM      30.10R
$$

TXZ173-191>194-202-209-217>225-228-200300-
CENTRAL AND SOUTH CENTRAL TEXAS

CITY           SKY/WX    TMP DP  RH WIND       PRES   REMARKS
GEORGETOWN     CLOUDY    48  46  93 N12       30.17R WCI  43
AUSTIN/BERGSTM CLOUDY    50  46  86 N13       30.17R WCI  45
AUSTIN/MABRY   CLOUDY    50  46  86 N6        30.18R WCI  48
*AUSTIN/EXEC   CLOUDY    48  46  93 N17       30.17R WCI  42
*LAGO VISTA    CLOUDY    48  46  92 N8        30.17R FOG     WCI  45
SAN MARCOS     CLOUDY    52  45  76 N15       30.16R
NEW BRAUNFELS  CLOUDY    54  47  77 NE12      30.14R
RANDOLPH AFB   CLOUDY    53  46  76 N12       30.14R
PT SAN ANTONIO CLOUDY    53  47  80 NE6       30.12R
SAN ANTONIO    MOCLDY    54  47  77 N8        30.14R
STINSON FIELD  PTCLDY    54  46  74 NE9       30.13R
*PLEASANTON    CLEAR     55  48  79 N6        30.14R
*LA GRANGE     CLOUDY    53  50  91 N8G17     30.13R
*GIDDINGS      CLOUDY    50  47  88 N12       30.19R WCI  46
*GONZALES      NOT AVBL
$$

TXZ163>164-176>182-195>201-210>213-226-227-235-200300-
SOUTHEAST TEXAS

CITY           SKY/WX    TMP DP  RH WIND       PRES   REMARKS
COLLEGE STN    CLOUDY    51  49  92 N10       30.14R
*BRYAN         CLOUDY    50  49  97 N7        30.16R FOG     WCI  47
*CALDWELL      CLOUDY    48  48 100 NW10      30.18R FOG     WCI  44
*CROCKETT      CLOUDY    52  52 100 N7        30.17S
*BRENHAM       CLOUDY    53  52  94 N13       30.14R
HUNTSVILLE     CLOUDY    50  49  96 VRB6      30.13S FOG     WCI  48
CONROE         CLOUDY    52  50  93 N8        30.12R
HOUSTON BUSH   CLOUDY    55  52  89 N13       30.10R
HOUSTON HOBBY  CLOUDY    55  53  93 N17       30.08R
*HOUSTON SW AP CLOUDY    47  46  95 N9        30.09R WCI  43
PEARLAND       CLOUDY    55  53  93 NE12      30.10R
HOUSTON HOOKS  CLOUDY    54  51  90 N13G21    30.10R
ELLINGTON FLD  CLOUDY    54  52  94 N13       30.10R
SUGAR LAND     CLOUDY    57  53  86 N14       30.09R
*HOUSTON EXEC  CLOUDY    54  54 100 N14       30.12R FOG
*CLEVELAND MUN CLOUDY    52  51  97 NE6       30.12R
*WHARTON       CLOUDY    55  54  96 N16       30.10R FOG
*COLUMBUS      CLOUDY    53  51  94 N13G20    30.11R
$$

TXZ214>216-236>238-200300-
THE UPPER TEXAS COAST

CITY           SKY/WX    TMP DP  RH WIND       PRES   REMARKS
*ORANGE        DRIZZLE   53  53  97 N7        30.09R
PORT ARTHUR    CLOUDY    54  52  93 N14       30.06R
GALVESTON      LGT RAIN  56  55  97 N21       30.07R
ANGLETON       CLOUDY    53  53 100 N13       30.08R
*BAY CITY        N/A     58  56  95 N9        30.07R
PALACIOS       CLOUDY    58  56  93 N16G23    30.07R
$$

TXZ229>234-239>247-200300-
TEXAS COASTAL BEND AND RIO GRANDE PLAINS

CITY           SKY/WX    TMP DP  RH WIND       PRES   REMARKS
VICTORIA       CLOUDY    58  54  86 N12       30.09R
*BEEVILLE      CLOUDY    58  53  82 N14       30.10R
ROCKPORT       CLOUDY    61  56  83 N14       30.08R
*PORT ARANSAS  CLOUDY    60  56  85 N13       30.07R
*PORT LAVACA   CLOUDY    57  56  94 N15       30.08S
*INGLESIDE     CLOUDY    60  54  81 N10       30.08R
CORPUS CHRISTI CLOUDY    61  56  83 N8        30.08R
CORPUS NAS     CLOUDY    61  57  87 N18       30.08R
*ROBSTOWN      NOT AVBL
ALICE          CLOUDY    62  54  74 N9        30.09R
KINGSVILLE NAS CLOUDY    62  58  86 N8        30.09R
COTULLA        CLEAR     57  50  77 E6        30.11R
LAREDO         CLEAR     57  54  88 N5        30.12R
$$

TXZ248>255-200300-
DEEP SOUTH TEXAS

CITY           SKY/WX    TMP DP  RH WIND       PRES   REMARKS
BROWNSVILLE    CLOUDY    60  56  86 N14       30.07R
PORT ISABEL    CLOUDY    61  57  87 N14       30.06R
*SOUTH PADRE   PTCLDY    63  59  88 E15       30.06R
HARLINGEN      CLOUDY    61  58  90 N9        30.07R
*HEBBRONVILLE  PTCLDY    55  52  89 N3        30.11R
MCALLEN        PTCLDY    62  56  80 N8        30.10R
*WESLACO       CLOUDY    61  55  81 N7        30.08R
FALFURRIAS     CLOUDY    62  55  78 N7        30.08R
EDINBURG       PTCLDY    61  56  83 N7        30.09R
*ZAPATA        PTCLDY    55  55 100 W3        30.10R
$$

TXZ213>215-236>238-242>244-246-247-251-254-255-200300-
CMAN STATIONS

STATION/POSITION TIME  TEMP    WIND        PRES    WAVE
                       AIR SEA DIR/SP/G            HT/PER
                 (UTC) (F)     (DEG/KT/KT) (MB)    (FT/S)
SABINE PASS      0200   56 61   20/ 13/ 17 1017.3
SEA RIM ST PARK  0200   55      20/ 12/ 14 1018.3
NORTH JETTY/GLS  0200   55 62   40/ 18/ 20   N/A
EAGLE POINT      0200   54 61   20/ 11/ 19 1018.4
MORGANS POINT    0200   53      10/ 12/ 15 1018.5
MISSION/ARANSAS  0100   60     360/ 11     1019.0
PORT O`CONNOR    0200          360/ 19/ 22   N/A
PORT ARANSAS     0200   61 64  360/ 18/ 21 1018.6
MALAQUITE BEACH  0200   61 68  360/ 16/ 19 1017.7
BAFFIN BAY       0200   61     360/ 15/ 18 1018.1
PORT ISABEL      0200   61 69  340/ 15/ 19 1017.5
$$

GMZ080-GMZ150>470-200300-
OFFSHORE BUOY REPORTS

STATION/POSITION TIME  TEMP    WIND        PRES    WAVE
                       AIR SEA DIR/SP/G            HT/PER
                 (UTC) (F)     (DEG/KT/KT) (MB)    (FT/S)
20 E GALVESTON   0200   58 65   10/ 17/ 21 1016.3    5/ 6
90 E PT ARANSAS  0200   64 71   10/ 21/ 25 1015.6    6/ 6
35 NE PT MANSFLD 0200   63 73  360/ 19/ 23 1016.5    6/ 6
200 E PT ISABEL  0200   73 73  260/  8/ 10 1015.1    3/ 6
$$